Trabzon, Turkey

9:24 AM +03 on February 24, 2017 (GMT +0300)
Trabzon

Weather History for LTCG - April, 2013

Change the Weather History Date:

Sunday, April 14, 2013

  Actual Average Record
Temperature  
Mean Temperature 50 °F -  
Max Temperature 56 °F 59 °F 84 °F (2005)
Min Temperature 44 °F 50 °F 39 °F (2003)
Degree Days  
Heating Degree Days 15    
Moisture  
Dew Point 49 °F    
Average Humidity 96    
Maximum Humidity 100    
Minimum Humidity 79    
Precipitation  
Precipitation 0.00 in - - ()
Sea Level Pressure  
Sea Level Pressure 30.10 in    
Wind  
Wind Speed 5 mph ()    
Max Wind Speed 12 mph    
Max Gust Speed -    
Visibility 3.3 miles    
Events Fog    
Averages and records for this station are not official NWS values.
T = Trace of Precipitation, MM = Missing Value Source: Averaged Metar Reports

Daily Weather History Graph

Daily Weather History Graph

Search for Another Location

Airport or City:

Trip Planner

Search our weather history database for the weather conditions in past years. The results will help you decide how hot, cold, wet, or windy it might be!

Date:

Astronomy

Apr. 14, 2013 Rise Set
Actual Time 5:43 AM EEST 6:59 PM EEST
Civil Twilight 5:15 AM EEST 7:28 PM EEST
Nautical Twilight 4:41 AM EEST 8:02 PM EEST
Astronomical Twilight 4:05 AM EEST 8:38 PM EEST
Moon 8:02 AM EEST (4/14) 10:56 PM EEST (4/14)
Length of Visible Light 14h 12m
Length of Day
13h 16m
Waxing Crescent, 15% of the Moon is Illuminated
Apr 14
Waxing Crescent
Apr 18
First Quarter
Apr 25
Full
May 2
Last Quarter
May 10
New

Hourly Weather History & Observations

Time (EEST) Temp. Dew Point Humidity Pressure Visibility Wind Dir Wind Speed Gust Speed Precip Events Conditions
12:00 AM 50.0 °F 48.2 °F 94% 30.15 in 0.2 mi North 3.5 mph - N/A Fog Fog
12:20 AM 50.0 °F 50.0 °F 100% 30.15 in 0.3 mi East 4.6 mph - N/A Fog Patches of Fog
12:39 AM 50.0 °F 50.0 °F 100% 30.15 in 0.9 mi SE 5.8 mph - N/A Fog Patches of Fog
12:50 AM 50.0 °F 50.0 °F 100% 30.15 in 1.1 mi SE 5.8 mph - N/A Fog Patches of Fog
1:20 AM 50.0 °F 48.2 °F 94% 30.15 in 1.1 mi SSE 3.5 mph - N/A Fog Patches of Fog
1:36 AM 50.0 °F 48.2 °F 94% 30.15 in 0.4 mi South 3.5 mph - N/A Fog Patches of Fog
1:50 AM 50.0 °F 48.2 °F 94% 30.15 in 0.3 mi SSE 3.5 mph - N/A Fog Patches of Fog
2:20 AM 48.2 °F 48.2 °F 100% 30.15 in 0.3 mi SSE 4.6 mph - N/A Fog Patches of Fog
2:50 AM 48.2 °F 48.2 °F 100% 30.12 in - South 3.5 mph - N/A Fog Patches of Fog
3:00 AM 48 °F 47 °F 97% 30.15 in 0 mi South 3.5 mph - - Fog Heavy Fog
3:20 AM 48.2 °F 48.2 °F 100% 30.15 in 0.2 mi Variable 3.5 mph - N/A Fog Patches of Fog
3:31 AM 48.2 °F 48.2 °F 100% 30.15 in 0.2 mi Variable 2.3 mph - N/A Fog Fog
3:50 AM 48.2 °F 48.2 °F 100% 30.12 in 0.2 mi East 3.5 mph - N/A Fog Fog
4:20 AM 46.4 °F 46.4 °F 100% 30.12 in 0.2 mi Variable 2.3 mph - N/A Fog Fog
4:50 AM 46.4 °F 46.4 °F 100% 30.12 in 0.2 mi Variable 1.2 mph - N/A Fog Fog
5:20 AM 46.4 °F 46.4 °F 100% 30.12 in 0.2 mi Calm Calm - N/A Fog Fog
5:50 AM 44.6 °F 44.6 °F 100% 30.12 in 0.2 mi Variable 1.2 mph - N/A Fog Fog
6:20 AM 46.4 °F 46.4 °F 100% 30.12 in 0.7 mi Calm Calm - N/A Fog Patches of Fog
6:50 AM 44.6 °F 44.6 °F 100% 30.12 in 0.3 mi Variable 1.2 mph - N/A Fog Fog
7:20 AM 46.4 °F 46.4 °F 100% 30.12 in 0.2 mi Variable 2.3 mph - N/A Fog Patches of Fog
7:50 AM 48.2 °F 48.2 °F 100% 30.12 in 0.9 mi East 4.6 mph - N/A Fog Patches of Fog
8:20 AM 48.2 °F 48.2 °F 100% 30.12 in 1.5 mi East 6.9 mph - N/A Fog Patches of Fog
8:40 AM 48.2 °F 48.2 °F 100% 30.12 in 5.6 mi East 6.9 mph - N/A   Scattered Clouds
8:50 AM 48.2 °F 48.2 °F 100% 30.12 in 5.6 mi East 6.9 mph - N/A   Scattered Clouds
8:59 AM 48.2 °F 48.2 °F 100% 30.12 in 1.6 mi East 8.1 mph - N/A Fog Patches of Fog
9:00 AM 49 °F 48 °F 97% 30.12 in 6 mi East 6.9 mph - - Fog Light Fog
9:01 AM 48.2 °F 48.2 °F 100% 30.12 in - East 8.1 mph - N/A Fog Patches of Fog
9:20 AM 48.2 °F 48.2 °F 100% 30.09 in 0.6 mi East 6.9 mph - N/A Fog Patches of Fog
9:30 AM 48.2 °F 48.2 °F 100% 30.09 in - East 6.9 mph - N/A Fog Patches of Fog
9:40 AM 48.2 °F 48.2 °F 100% 30.09 in 0.9 mi East 6.9 mph - N/A Fog Patches of Fog
9:50 AM 48.2 °F 48.2 °F 100% 30.09 in 1.4 mi East 6.9 mph - N/A Fog Patches of Fog
9:56 AM 48.2 °F 48.2 °F 100% 30.09 in 3.1 mi East 6.9 mph - N/A Fog Patches of Fog
10:02 AM 50.0 °F 48.2 °F 94% 30.09 in 3.7 mi East 6.9 mph - N/A   Scattered Clouds
10:09 AM 48.2 °F 48.2 °F 100% 30.09 in 1.3 mi East 6.9 mph - N/A Fog Patches of Fog
10:20 AM 48.2 °F 48.2 °F 100% 30.09 in 1.6 mi East 8.1 mph - N/A Fog Patches of Fog
10:50 AM 48.2 °F 48.2 °F 100% 30.09 in 0.8 mi East 8.1 mph - N/A Fog Patches of Fog
11:06 AM 50.0 °F 50.0 °F 100% 30.06 in 1.2 mi East 8.1 mph - N/A Fog Patches of Fog
11:20 AM 50.0 °F 50.0 °F 100% 30.06 in 3.7 mi East 8.1 mph - N/A   Scattered Clouds
11:50 AM 51.8 °F 50.0 °F 94% 30.09 in 4.3 mi ENE 4.6 mph - N/A   Scattered Clouds
12:20 PM 53.6 °F 50.0 °F 88% 30.06 in 6.2 mi Variable 5.8 mph - N/A   Scattered Clouds
12:50 PM 51.8 °F 50.0 °F 94% 30.06 in 6.2 mi East 6.9 mph - N/A   Scattered Clouds
1:20 PM 53.6 °F 50.0 °F 88% 30.06 in 6.2 mi East 8.1 mph - N/A   Scattered Clouds
1:50 PM 53.6 °F 50.0 °F 88% 30.06 in 6.2 mi East 8.1 mph - N/A   Scattered Clouds
2:20 PM 53.6 °F 50.0 °F 88% 30.06 in 6.2 mi ENE 4.6 mph - N/A   Scattered Clouds
2:50 PM 53.6 °F 50.0 °F 88% 30.06 in 6.2 mi East 5.8 mph - N/A   Scattered Clouds
3:00 PM 54 °F 49 °F 79% 30.08 in 12 mi East 5.8 mph - -   Partly Cloudy
3:20 PM 53.6 °F 50.0 °F 88% 30.06 in 6.2 mi East 8.1 mph - N/A   Scattered Clouds
3:50 PM 55.4 °F 50.0 °F 82% 30.04 in 6.2 mi East 9.2 mph - N/A   Scattered Clouds
4:20 PM 55.4 °F 50.0 °F 82% 30.04 in 6.2 mi East 8.1 mph - N/A   Scattered Clouds
4:50 PM 55.4 °F 51.8 °F 88% 30.04 in 6.2 mi ENE 5.8 mph - N/A   Scattered Clouds
5:20 PM 55.4 °F 51.8 °F 88% 30.04 in 6.2 mi Calm Calm - N/A   Scattered Clouds
5:50 PM 55.4 °F 51.8 °F 88% 30.04 in 6.2 mi WNW 4.6 mph - N/A   Scattered Clouds
6:20 PM 53.6 °F 51.8 °F 94% 30.06 in 6.2 mi WNW 10.4 mph - N/A   Scattered Clouds
6:50 PM 51.8 °F 50.0 °F 94% 30.06 in 6.2 mi WNW 6.9 mph - N/A   Scattered Clouds
7:20 PM 51.8 °F 50.0 °F 94% 30.06 in 6.2 mi NW 4.6 mph - N/A   Scattered Clouds
7:50 PM 51.8 °F 50.0 °F 94% 30.06 in 6.2 mi Variable 2.3 mph - N/A   Scattered Clouds
8:20 PM 51.8 °F 50.0 °F 94% 30.06 in 6.2 mi WNW 2.3 mph - N/A   Scattered Clouds
8:50 PM 51.8 °F 50.0 °F 94% 30.09 in 1.6 mi WNW 9.2 mph - N/A Fog Patches of Fog
9:00 PM 51 °F 50 °F 94% 30.10 in 2 mi WNW 9.2 mph - - Fog Patches of Fog
9:12 PM 50.0 °F 50.0 °F 100% 30.09 in 4.3 mi WNW 11.5 mph - N/A   Mostly Cloudy
9:20 PM 50.0 °F 50.0 °F 100% 30.09 in 5.0 mi WNW 11.5 mph - N/A   Mostly Cloudy
9:33 PM 50.0 °F 50.0 °F 100% 30.09 in 6.2 mi WNW 10.4 mph - N/A   Mostly Cloudy
9:50 PM 50.0 °F 48.2 °F 94% 30.09 in 6.2 mi West 10.4 mph - N/A   Mostly Cloudy
10:20 PM 50.0 °F 48.2 °F 94% 30.09 in 6.2 mi WNW 6.9 mph - N/A   Mostly Cloudy
10:50 PM 50.0 °F 48.2 °F 94% 30.09 in 6.2 mi Variable 2.3 mph - N/A   Mostly Cloudy
11:20 PM 50.0 °F 48.2 °F 94% 30.09 in 3.7 mi East 5.8 mph - N/A   Scattered Clouds
11:50 PM 50.0 °F 48.2 °F 94% 30.09 in 2.8 mi ENE 4.6 mph - N/A Fog Patches of Fog